Weather History for Myrtle Beach, SC

Change the Weather History Date:

Tuesday, August 27, 2013

  Actual Average Record
Temperature  
Mean Temperature 73 °F -  
Max Temperature 82 °F 83 °F 92 °F (2003)
Min Temperature 64 °F 69 °F 64 °F (2013)
Cooling Degree Days 8    
Growing Degree Days 23 (Base 50)    
Moisture  
Dew Point 63 °F    
Average Humidity 73    
Maximum Humidity 94    
Minimum Humidity 51    
Precipitation  
Precipitation 0.00 in - - ()
Sea Level Pressure  
Sea Level Pressure 30.09 in    
Wind  
Wind Speed 2 mph (SSW)    
Max Wind Speed 14 mph    
Max Gust Speed -    
Visibility 10 miles    
Events      
Averages and records for this station are not official NWS values.
T = Trace of Precipitation, MM = Missing Value Source: NWS Daily Summary

Daily Weather History Graph

Daily Weather History Graph

Search for Another Location

Airport:

Trip Planner

Search our weather history database for the weather conditions in past years. The results will help you decide how hot, cold, wet, or windy it might be!

Date:

Astronomy

Aug. 27, 2013 Rise Set
Actual Time 6:46 AM EDT 7:47 PM EDT
Civil Twilight 6:20 AM EDT 8:12 PM EDT
Nautical Twilight 5:50 AM EDT 8:43 PM EDT
Astronomical Twilight 5:18 AM EDT 9:14 PM EDT
Moon No Moon Rise 1:21 PM EDT (8/27)
Length of Visible Light 13h 52m
Length of Day
13h 01m
Waning Gibbous, 57% of the Moon is Illuminated
Aug 27
Waning Gibbous
Aug 28
Last Quarter
Sep 5
New
Sep 12
First Quarter
Sep 19
Full

Hourly Weather History & Observations

Time (EDT) Temp. Heat Index Dew Point Humidity Pressure Visibility Wind Dir Wind Speed Gust Speed Precip Events Conditions
12:15 AM 68.0 °F - 62.6 °F 83% 30.16 in 10.0 mi Calm Calm - N/A   Partly Cloudy
12:35 AM 68.0 °F - 62.6 °F 83% 30.15 in 10.0 mi Calm Calm - N/A   Clear
12:55 AM 66.2 °F - 62.6 °F 88% 30.15 in 10.0 mi Calm Calm - N/A   Clear
1:15 AM 66.2 °F - 62.6 °F 88% 30.14 in 10.0 mi Calm Calm - N/A   Mostly Cloudy
1:35 AM 68.0 °F - 62.6 °F 83% 30.15 in 10.0 mi Calm Calm - N/A   Mostly Cloudy
1:55 AM 68.0 °F - 62.6 °F 83% 30.14 in 10.0 mi Calm Calm - N/A   Mostly Cloudy
2:15 AM 69.8 °F - 62.6 °F 78% 30.13 in 10.0 mi Calm Calm - N/A   Overcast
2:35 AM 69.8 °F - 64.4 °F 83% 30.13 in 10.0 mi Calm Calm - N/A   Mostly Cloudy
2:55 AM 69.8 °F - 62.6 °F 78% 30.12 in 10.0 mi Calm Calm - N/A   Partly Cloudy
3:15 AM 68.0 °F - 62.6 °F 83% 30.12 in 10.0 mi Calm Calm - N/A   Clear
3:35 AM 66.2 °F - 62.6 °F 88% 30.12 in 10.0 mi Calm Calm - N/A   Clear
3:55 AM 66.2 °F - 62.6 °F 88% 30.11 in 10.0 mi Calm Calm - N/A   Clear
4:15 AM 66.2 °F - 62.6 °F 88% 30.10 in 10.0 mi Calm Calm - N/A   Clear
4:35 AM 64.4 °F - 60.8 °F 88% 30.10 in 10.0 mi Calm Calm - N/A   Clear
4:55 AM 64.4 °F - 60.8 °F 88% 30.10 in 10.0 mi Calm Calm - N/A   Clear
5:15 AM 64.4 °F - 62.6 °F 94% 30.09 in 10.0 mi Calm Calm - N/A   Clear
5:35 AM 64.4 °F - 60.8 °F 88% 30.09 in 10.0 mi Calm Calm - N/A   Clear
5:50 AM 64.4 °F - 60.8 °F 88% 30.10 in 10.0 mi Calm Calm - N/A   Clear
6:45 AM 64.4 °F - 60.8 °F 88% 30.11 in 10.0 mi Calm Calm - N/A   Clear
7:45 AM 66.2 °F - 62.6 °F 88% 30.10 in 10.0 mi Calm Calm - N/A   Clear
8:45 AM 71.6 °F - 66.2 °F 83% 30.11 in 10.0 mi Calm Calm - N/A   Clear
9:45 AM 77.0 °F - 66.2 °F 69% 30.10 in 10.0 mi West 9.2 mph - N/A   Clear
10:50 AM 78.8 °F - 64.4 °F 61% 30.11 in 10.0 mi West 5.8 mph - N/A   Clear
11:45 AM 80.6 °F 81.8 °F 62.6 °F 54% 30.11 in 10.0 mi SW 6.9 mph - N/A   Partly Cloudy
12:45 PM 82.4 °F 83.9 °F 64.4 °F 54% 30.07 in 10.0 mi SSW 8.1 mph - N/A   Partly Cloudy
1:45 PM 82.4 °F 83.9 °F 64.4 °F 54% 30.08 in 10.0 mi South 11.5 mph - N/A   Scattered Clouds
2:50 PM 82.4 °F 83.9 °F 64.4 °F 54% 30.07 in 10.0 mi South 12.7 mph - N/A   Scattered Clouds
3:50 PM 82.4 °F 83.4 °F 62.6 °F 51% 30.03 in 10.0 mi South 13.8 mph - N/A   Scattered Clouds
4:45 PM 82.4 °F 83.4 °F 62.6 °F 51% 30.04 in 10.0 mi South 13.8 mph - N/A   Partly Cloudy
5:50 PM 80.6 °F 81.5 °F 60.8 °F 51% 30.03 in 10.0 mi South 12.7 mph - N/A   Scattered Clouds
6:50 PM 78.8 °F - 62.6 °F 57% 30.03 in 10.0 mi South 12.7 mph - N/A   Scattered Clouds
7:45 PM 78.8 °F - 62.6 °F 57% 30.03 in 10.0 mi SSW 9.2 mph - N/A   Scattered Clouds
8:47 PM 77.0 °F - 62.6 °F 61% 30.02 in 10.0 mi SSW 8.1 mph - N/A   Clear
9:45 PM 75.2 °F - 60.8 °F 61% 30.03 in 10.0 mi SW 6.9 mph - N/A   Clear
10:55 PM 75.2 °F - 60.8 °F 61% 30.05 in 10.0 mi SW 6.9 mph - N/A   Partly Cloudy
11:15 PM 75.2 °F - 60.8 °F 61% 30.06 in 10.0 mi SW 4.6 mph - N/A   Partly Cloudy
11:35 PM 73.4 °F - 60.8 °F 65% 30.05 in 10.0 mi SW 4.6 mph - N/A   Clear
11:55 PM 73.4 °F - 60.8 °F 65% 30.05 in 10.0 mi SW 5.8 mph - N/A   Clear